Content
SEND FEEDBACK

Daily
Averages
Monthly
Summary
Canada

VANCOUVER, BRITISH COLUMBIA


Home > North America > Canada > British Columbia
Elevation: 7 feet     Latitude: 49 11N     Longitude: 123 10W

WEATHER
 
SELECT A DAY
Number of Records: 254,841;   Date Range: 5/15/97 - 12/17/14
 
SHARE

PRINT THIS DATA

[ ← Previous Day ]
WEATHER ALMANAC - JULY 8, 2013
[ Next Day → ]
[ °C ]   °F
We're sorry. There is no daily almanac available for Vancouver, British Columbia on July 8, 2013.
WEATHER BY HOUR - JULY 8, 2013
[ °C ]   °F
Local TimeTemperatureDewpointHumidityBarometerVisibilityWind DirectionWind SpeedGust SpeedPrecipitationEventsConditions
12:35 AM57.2 °F53.6 °F88 %29.93 in9.0 miCalmClear
12:55 AM57.2 °F53.6 °F88 %29.93 in8.0 miNorthClear
1:15 AM57.2 °F53.6 °F88 %29.93 in8.0 miCalmClear
1:35 AM57.2 °F53.6 °F88 %29.94 in8.0 miSouth (180°)4.6 mphClear
1:55 AM55.4 °F53.6 °F94 %29.94 in8.0 miSSE (150°)3.5 mphClear
2:15 AM55.4 °F53.6 °F94 %29.94 in7.0 miNorthClear
2:35 AM55.4 °F53.6 °F94 %29.95 in8.0 miCalmClear
2:55 AM55.4 °F53.6 °F94 %29.95 in8.0 miCalmClear
3:15 AM55.4 °F53.6 °F94 %29.96 in8.0 miCalmClear
3:55 AM55.4 °F53.6 °F94 %29.96 in5.0 miCalmClear
4:15 AM59.0 °F55.4 °F88 %29.97 in9.0 miCalmPartly Cloudy
4:35 AM60.8 °F57.2 °F88 %29.98 in10.0 miCalmPartly Cloudy
4:55 AM59.0 °F57.2 °F94 %29.98 in9.0 miCalmClear
5:15 AM59.0 °F57.2 °F94 %29.99 in9.0 miCalmClear
5:35 AM59.0 °F57.2 °F94 %29.99 in9.0 miWNW (300°)4.6 mphClear
5:55 AM60.8 °F57.2 °F88 %30.00 in8.0 miCalmPartly Cloudy
6:15 AM60.8 °F57.2 °F88 %30.00 in8.0 miNorth (350°)8.1 mphPartly Cloudy
6:35 AM60.8 °F57.2 °F88 %30.00 in9.0 miNNW (340°)4.6 mphClear
6:55 AM60.8 °F57.2 °F88 %30.01 in8.0 miNNW (340°)4.6 mphClear
7:15 AM62.6 °F57.2 °F82 %30.02 in8.0 miNNW (340°)5.8 mphClear
7:35 AM62.6 °F57.2 °F82 %30.03 in9.0 miNNW (340°)5.8 mphPartly Cloudy
7:55 AM62.6 °F57.2 °F82 %30.03 in9.0 miNNW (330°)5.8 mphPartly Cloudy
8:15 AM62.6 °F57.2 °F82 %30.04 in9.0 miNNW (330°)6.9 mphPartly Cloudy
8:35 AM62.6 °F57.2 °F82 %30.04 in9.0 miNNW (340°)6.9 mphPartly Cloudy
8:55 AM62.6 °F57.2 °F82 %30.04 in9.0 miNNW (340°)6.9 mphScattered Clouds
9:15 AM62.6 °F57.2 °F82 %30.05 in9.0 miNorth (350°)5.8 mphScattered Clouds
9:35 AM62.6 °F57.2 °F82 %30.06 in10.0 miNNW (340°)5.8 mphPartly Cloudy
9:55 AM62.6 °F57.2 °F82 %30.06 in9.0 miNNW (340°)5.8 mphClear
10:15 AM62.6 °F57.2 °F82 %30.07 in9.0 miNNW (340°)6.9 mphClear
10:35 AM62.6 °F57.2 °F82 %30.07 in9.0 miNorth (360°)5.8 mphClear
10:55 AM62.6 °F57.2 °F82 %30.07 in9.0 miNorth (360°)4.6 mphClear
11:15 AM62.6 °F57.2 °F82 %30.07 in9.0 miCalmClear
11:35 AM62.6 °F57.2 °F82 %30.07 in9.0 miNNE (20°)3.5 mphClear
11:55 AM62.6 °F57.2 °F82 %30.07 in9.0 miNorth (350°)5.8 mphClear
12:15 PM64.4 °F57.2 °F77 %30.08 in9.0 miNorth (360°)5.8 mphClear
12:35 PM64.4 °F57.2 °F77 %30.08 in8.0 miNorth (360°)3.5 mphClear
12:55 PM64.4 °F57.2 °F77 %30.08 in9.0 miNorth (360°)4.6 mphClear
1:15 PM64.4 °F57.2 °F77 %30.08 in9.0 miNorth (350°)5.8 mphClear
1:35 PM64.4 °F57.2 °F77 %30.08 in9.0 miNorth (360°)5.8 mphClear
1:55 PM66.2 °F57.2 °F73 %30.07 in9.0 miNNW (340°)4.6 mphClear
2:15 PM66.2 °F59.0 °F78 %30.07 in10.0 miNNW (340°)4.6 mphClear
2:35 PM66.2 °F59.0 °F78 %30.07 in9.0 miNNW (340°)5.8 mphClear
2:55 PM64.4 °F59.0 °F83 %30.07 in9.0 miNorth (350°)5.8 mphClear
3:15 PM64.4 °F59.0 °F83 %30.06 in8.0 miNorth (350°)4.6 mphClear
3:35 PM66.2 °F57.2 °F73 %30.06 in9.0 miNorth (360°)4.6 mphClear
3:55 PM66.2 °F57.2 °F73 %30.06 in10.0 miNorth (360°)5.8 mphClear
4:15 PM68.0 °F57.2 °F68 %30.06 in9.0 miCalmClear
4:35 PM66.2 °F57.2 °F73 %30.05 in9.0 miNorth (350°)5.8 mphClear
4:55 PM66.2 °F57.2 °F73 %30.05 in9.0 miCalmClear
5:15 PM68.0 °F57.2 °F68 %30.05 in8.0 miCalmClear
5:35 PM68.0 °F59.0 °F73 %30.05 in9.0 miCalmClear
5:55 PM71.6 °F59.0 °F64 %30.05 in9.0 miCalmClear
6:15 PM69.8 °F59.0 °F68 %30.05 in9.0 miNorth (360°)5.8 mphClear
6:35 PM68.0 °F59.0 °F73 %30.05 in9.0 miCalmClear
6:55 PM68.0 °F59.0 °F73 %30.04 in9.0 miCalmClear
7:15 PM69.8 °F59.0 °F68 %30.04 in9.0 miCalmClear
7:35 PM71.6 °F59.0 °F64 %30.04 in9.0 miCalmClear
7:55 PM71.6 °F55.4 °F57 %30.04 in9.0 miSouth (180°)4.6 mphClear
8:15 PM69.8 °F55.4 °F60 %30.04 in10.0 miSouth (180°)3.5 mphClear
8:35 PM68.0 °F55.4 °F64 %30.04 in9.0 miCalmClear
8:55 PM68.0 °F55.4 °F64 %30.04 in10.0 miSSW (200°)9.2 mphClear
9:15 PM66.2 °F55.4 °F68 %30.05 in9.0 miSouth (190°)6.9 mphClear
9:35 PM64.4 °F55.4 °F73 %30.05 in9.0 miSSW (200°)8.1 mphClear
9:55 PM64.4 °F53.6 °F68 %30.06 in10.0 miSouth (170°)5.8 mphClear
10:15 PM62.6 °F55.4 °F77 %30.06 in10.0 miNorthClear
10:35 PM62.6 °F55.4 °F77 %30.06 in10.0 miCalmClear
10:55 PM60.8 °F55.4 °F82 %30.07 in10.0 miSouth (180°)3.5 mphClear
11:15 PM59.0 °F55.4 °F88 %30.07 in10.0 miNorthClear
11:35 PM59.0 °F55.4 °F88 %30.07 in9.0 miSSE (160°)3.5 mphClear
11:55 PM59.0 °F55.4 °F88 %30.07 in9.0 miCalmClear
Hourly data recorded from CZBB, located miles away from Vancouver, British Columbia







STORIES FROM OUR PARTNERS